Location: Newark
(7.0858°N, 171.3717°E)
Time: 03:08:29
(UTC+00:00)

Altair - Visible Passes

Search period start: 19 May 2021 00:00
Search period end: 29 May 2021 00:00
Orbit: 1501 x 1683 km, 47.2° (Epoch: 18 May)

Date Brightness Start Highest point End Pass type
(mag) Time Alt. Az. Time Alt. Az. Time Alt. Az.
19 May 8.4 08:33:27 10° WSW 08:42:45 48° NW 08:52:22 10° NNE visible
19 May 9.3 17:11:32 10° NNW 17:19:57 32° NE 17:28:05 10° ESE visible
20 May 8.3 08:08:04 10° WSW 08:17:31 53° NW 08:27:17 10° NNE visible
20 May 10.1 10:22:31 10° NW 10:23:52 10° NW 10:25:12 10° NNW visible
20 May 9.4 16:46:34 10° NNW 16:54:41 28° NE 17:02:31 10° E visible
21 May 8.2 07:42:45 10° SW 07:52:17 59° NW 08:02:11 10° NNE visible
21 May 10.1 09:55:03 10° WNW 09:58:24 12° NW 10:01:48 10° NNW visible
21 May 9.5 16:21:40 10° N 16:29:24 25° NE 16:36:53 10° E visible
22 May 8.1 07:17:28 10° SW 07:27:05 66° NW 07:37:03 10° NNE visible
22 May 10.0 09:28:30 10° WNW 09:32:59 14° NW 09:37:33 10° N visible
22 May 9.6 15:56:47 10° N 16:04:05 23° NE 16:11:11 10° E visible
23 May 8.0 06:52:14 10° SW 07:01:52 73° NW 07:11:53 10° NE visible
23 May 10.0 09:02:15 10° WNW 09:07:36 16° NW 09:13:02 10° N visible
23 May 9.6 15:31:58 10° N 15:38:46 20° NE 15:45:24 10° E visible
23 May 7.6 17:34:11 10° NW 17:44:04 89° SW 17:53:34 10° SE visible
24 May 9.9 08:36:11 10° WNW 08:42:13 18° NW 08:48:23 10° N visible
24 May 9.7 15:07:12 10° N 15:13:26 18° NE 15:19:30 10° E visible
24 May 7.6 17:08:59 10° NW 17:18:54 83° NE 17:28:25 10° SE visible
25 May 9.9 08:10:16 10° W 08:16:52 20° NW 08:23:38 10° N visible
25 May 9.8 14:42:31 10° N 14:48:04 16° NE 14:53:30 10° ENE visible
25 May 7.7 16:43:47 10° NW 16:53:42 75° NE 17:03:14 10° SE visible
26 May 9.9 07:44:27 10° W 07:51:32 22° NW 07:58:50 10° N visible
26 May 9.8 14:17:58 10° N 14:22:40 14° NE 14:27:20 10° ENE visible
26 May 7.8 16:18:39 10° NNW 16:28:31 68° NE 16:38:01 10° SE visible
27 May 9.8 07:18:43 10° W 07:26:13 25° NW 07:33:57 10° N visible
27 May 9.9 13:53:38 10° NNE 13:57:16 12° NE 14:00:52 10° ENE visible
27 May 7.9 15:53:30 10° NNW 16:03:19 61° NE 16:12:45 10° SE visible
28 May 9.8 06:53:04 10° W 07:00:55 28° NW 07:09:03 10° NNE visible
28 May 9.9 13:29:52 10° NNE 13:31:50 11° NE 13:33:48 10° NE visible
28 May 8.1 15:28:23 10° NNW 15:38:07 55° NE 15:47:27 10° ESE visible
28 May 8.1 17:34:11 10° WNW 17:42:36 33° SW 17:50:48 10° S visible
